This is the latest recevied weather packets stored in our database for station/object K1KOF. If no packets are shown the sender has not sent any weather packets the latest 10 day(s).
| Time | Temp. | Humidity | Pressure | Rain* | Wind** | Luminosity | Snow |
|---|---|---|---|---|---|---|---|
| 1777591792 | 22.22° C | 82% | 1019.7 hPa | 0 mm | - | 29 W/m² | - |
| 1777591488 | 22.78° C | 81% | 1019.7 hPa | 0 mm | - | 34 W/m² | - |
| 1777591184 | 22.78° C | 79% | 1019.6 hPa | 0 mm | - | 40 W/m² | - |
| 1777590878 | 22.78° C | 76% | 1019.5 hPa | 0 mm | - | 44 W/m² | - |
| 1777590576 | 22.78° C | 75% | 1019.5 hPa | 0 mm | - | 51 W/m² | - |
| 1777590272 | 22.78° C | 76% | 1019.4 hPa | 0 mm | - | 56 W/m² | - |
| 1777589969 | 22.78° C | 75% | 1019.4 hPa | 0 mm | - | 56 W/m² | - |
| 1777589660 | 23.33° C | 74% | 1019.6 hPa | 0 mm | - | 62 W/m² | - |
| 1777589357 | 23.89° C | 73% | 1019.7 hPa | 0 mm | - | 66 W/m² | - |
| 1777589054 | 23.89° C | 72% | 1019.7 hPa | 0 mm | - | 84 W/m² | - |
| 1777588751 | 23.89° C | 73% | 1019.4 hPa | 0 mm | - | 83 W/m² | - |
| 1777588446 | 23.33° C | 73% | 1019.6 hPa | 0 mm | - | 94 W/m² | - |
| 1777588141 | 23.89° C | 72% | 1019.5 hPa | 0 mm | - | 114 W/m² | - |
| 1777587838 | 23.89° C | 73% | 1019.6 hPa | 0 mm | - | 117 W/m² | - |
| 1777587537 | 23.89° C | 73% | 1019.5 hPa | 0 mm | - | 102 W/m² | - |
| 1777587233 | 23.89° C | 70% | 1019.6 hPa | 0 mm | - | 105 W/m² | - |
| 1777586929 | 23.89° C | 71% | 1019.6 hPa | 0 mm | - | 126 W/m² | - |
| 1777586625 | 23.33° C | 70% | 1019.4 hPa | 0 mm | - | 121 W/m² | - |
| 1777586321 | 24.44° C | 69% | 1019.4 hPa | 0 mm | - | 119 W/m² | - |
| 1777586019 | 24.44° C | 68% | 1019.4 hPa | 0 mm | - | 236 W/m² | - |
| 1777585718 | 25.56° C | 67% | 1019.2 hPa | 0 mm | - | 283 W/m² | - |
| 1777585413 | 25° C | 68% | 1019.2 hPa | 0 mm | - | 319 W/m² | - |
| 1777585108 | 24.44° C | 68% | 1019 hPa | 0 mm | - | 352 W/m² | - |
| 1777584805 | 24.44° C | 69% | 1019.1 hPa | 0 mm | - | 324 W/m² | - |
| 1777584503 | 25° C | 68% | 1019.2 hPa | 0 mm | - | 360 W/m² | - |
* Rain latest hour (hover to see other rain measurements)
** Current wind speed in m/s (hover to see current wind gust speed)